Location: Drocourt
(49.0571°N, 1.7669°E)
Time: 20:28:10
(UTC+00:00)

Transit 4A - Pass Details

Date: 22 April 2024
Orbit: 871 x 971 km, 66.8° (Epoch: 18 May)

Event Time Altitude Azimuth Distance (km) Brightness Sun altitude
Rises 20:48:46 0° 323° (NW) 3,471 12.6 -16.4°
Reaches altitude 10° 20:51:15 10° 321° (NW) 2,529 11.5 -16.7°
Maximum altitude 20:57:02 69° 239° (WSW) 935 7.9 -17.4°
Enters shadow 21:00:25 26° 162° (SSE) 1,664 8.7 -17.8°
Drops below altitude 10° 21:02:52 10° 157° (SSE) 2,540 - -18.0°
Sets 21:05:22 0° 155° (SSE) 3,488 - -18.3°
